SQ9NFI-4 Weather Reports


time (UTC)temp
C
wind
direction
speed
KPH
gust
KPH
rain 1hr
cm
rain 24hr
cm
rain mn
cm
humidity
%
barometer
mb
20260905195154 17 333 4.8 6.4 0.00 0.00 0.13 64 1019.3
20260905194654 16 315 3.2 6.4 0.00 0.00 0.13 64 1019.0
20260905194154 16 304 6.4 6.4 0.00 0.00 0.13 64 1019.0
20260905193654 16 323 1.6 1.6 0.00 0.00 0.13 65 1019.0
20260905193154 16 298 6.4 8.0 0.00 0.00 0.13 65 1019.0
20260905192654 16 315 4.8 6.4 0.00 0.00 0.13 65 1019.0
20260905192154 16 291 4.8 6.4 0.00 0.00 0.13 65 1019.0
20260905191654 16 312 4.8 8.0 0.00 0.00 0.13 66 1019.0
20260905191154 16 303 6.4 9.7 0.00 0.00 0.13 65 1019.0
20260905190654 16 316 4.8 4.8 0.00 0.00 0.13 66 1019.0
20260905190154 16 315 1.6 3.2 0.00 0.00 0.13 67 1019.0
20260905185654 16 335 9.7 9.7 0.00 0.00 0.13 69 1018.3
20260905185154 16 322 1.6 1.6 0.00 0.00 0.13 71 1018.3
20260905184654 16 320 0.0 0.0 0.00 0.00 0.13 70 1018.3
20260905184154 16 325 1.6 1.6 0.00 0.00 0.13 70 1018.3
20260905183654 16 318 0.0 1.6 0.00 0.00 0.13 68 1018.0
20260905183154 17 322 0.0 0.0 0.00 0.00 0.13 65 1018.0
20260905182654 17 315 0.0 1.6 0.00 0.00 0.13 65 1018.0
20260905182154 17 319 0.0 0.0 0.00 0.00 0.13 64 1018.0
20260905181654 18 303 3.2 6.4 0.00 0.00 0.13 61 1018.0
20260905181154 18 315 4.8 6.4 0.00 0.00 0.13 60 1018.0
20260905180654 18 309 6.4 9.7 0.00 0.00 0.13 59 1018.0
20260905180154 18 316 4.8 4.8 0.00 0.00 0.13 60 1018.0
20260905175654 18 289 6.4 8.0 0.00 0.00 0.13 59 1018.0
20260905175154 18 322 0.0 1.6 0.00 0.00 0.13 59 1018.0
20260905174654 18 315 3.2 6.4 0.00 0.00 0.13 60 1018.0
20260905174154 18 321 6.4 9.7 0.00 0.00 0.13 58 1018.0
20260905173654 18 314 1.6 4.8 0.00 0.00 0.13 58 1018.0
20260905173154 18 317 4.8 9.7 0.00 0.00 0.13 58 1018.0
20260905172654 18 315 3.2 3.2 0.00 0.00 0.13 57 1018.0
20260905172154 19 282 1.6 3.2 0.00 0.00 0.13 59 1018.0
20260905171654 19 309 4.8 8.0 0.00 0.00 0.13 57 1018.0
20260905171154 19 301 3.2 6.4 0.00 0.00 0.13 56 1017.6
20260905170654 19 302 8.0 11.3 0.00 0.00 0.13 55 1017.6
20260905170154 19 326 4.8 9.7 0.00 0.00 0.13 55 1017.6
20260905165654 20 309 16.1 16.1 0.00 0.00 0.13 54 1017.6
20260905165154 20 326 8.0 11.3 0.00 0.00 0.13 54 1017.6
20260905164654 20 297 6.4 8.0 0.00 0.00 0.13 54 1017.6
20260905164154 20 326 6.4 6.4 0.00 0.00 0.13 54 1017.6
20260905163654 20 337 6.4 9.7 0.00 0.00 0.13 54 1017.3
20260905163154 20 332 4.8 6.4 0.00 0.00 0.13 54 1017.3
20260905162654 20 349 9.7 9.7 0.00 0.00 0.13 52 1017.3
20260905162154 20 265 4.8 14.5 0.00 0.00 0.13 51 1017.3
20260905161654 20 331 6.4 9.7 0.00 0.00 0.13 52 1017.3
20260905161154 20 297 6.4 8.0 0.00 0.00 0.13 51 1017.3
20260905160654 21 278 6.4 19.3 0.00 0.00 0.13 51 1017.3
20260905160154 21 338 12.9 27.4 0.00 0.00 0.13 49 1017.3
20260905155655 21 302 6.4 6.4 0.00 0.00 0.13 50 1017.3
20260905155154 21 290 9.7 9.7 0.00 0.00 0.13 50 1017.3
20260905154654 21 328 11.3 11.3 0.00 0.00 0.13 50 1017.3
20260905154154 21 346 17.7 22.5 0.00 0.00 0.13 49 1017.3
20260905153654 21 317 16.1 16.1 0.00 0.00 0.13 48 1017.3
20260905153154 21 339 11.3 14.5 0.00 0.00 0.13 47 1017.3
20260905152654 22 293 3.2 14.5 0.00 0.00 0.13 47 1017.3
20260905152154 22 272 12.9 19.3 0.00 0.00 0.13 48 1017.3
20260905151654 21 282 9.7 20.9 0.00 0.00 0.13 49 1017.3
20260905151154 21 321 12.9 16.1 0.00 0.00 0.13 50 1017.3
20260905150654 21 299 9.7 11.3 0.00 0.00 0.13 51 1017.3
20260905150154 21 333 20.9 27.4 0.00 0.00 0.13 49 1017.3
20260905145654 21 337 20.9 20.9 0.00 0.00 0.13 50 1017.3
20260905145153 21 285 12.9 16.1 0.00 0.00 0.13 50 1017.3
20260905144654 21 317 6.4 14.5 0.00 0.00 0.13 49 1017.3
20260905144154 22 307 17.7 17.7 0.00 0.00 0.13 47 1017.3
20260905143654 22 293 4.8 9.7 0.00 0.00 0.13 49 1017.3
20260905143154 21 339 14.5 16.1 0.00 0.00 0.13 48 1017.3
20260905142654 22 278 19.3 29.0 0.00 0.00 0.13 47 1017.3
20260905142154 22 266 12.9 16.1 0.00 0.00 0.13 49 1017.3
20260905141653 22 284 11.3 16.1 0.00 0.00 0.13 49 1017.3
20260905141154 22 340 17.7 27.4 0.00 0.00 0.13 49 1017.3
20260905140653 21 323 14.5 29.0 0.00 0.00 0.13 50 1017.3
20260905140154 21 335 27.4 32.2 0.00 0.00 0.13 50 1017.3
20260905135653 21 278 11.3 14.5 0.00 0.00 0.13 49 1017.3
20260905135154 21 37 17.7 19.3 0.00 0.00 0.13 50 1017.3
20260905134654 21 319 9.7 12.9 0.00 0.00 0.13 48 1017.3
20260905134153 21 321 12.9 17.7 0.00 0.00 0.13 49 1017.3
20260905133654 21 268 14.5 14.5 0.00 0.00 0.13 47 1017.3
20260905133153 21 329 20.9 20.9 0.00 0.00 0.13 47 1017.3
20260905132654 21 327 20.9 24.1 0.00 0.00 0.13 48 1017.3
20260905132154 21 330 14.5 17.7 0.00 0.00 0.13 47 1017.3
20260905131654 21 329 20.9 27.4 0.00 0.00 0.13 47 1017.3
20260905131154 22 282 11.3 17.7 0.00 0.00 0.13 45 1017.3
20260905130653 22 285 12.9 14.5 0.00 0.00 0.13 44 1017.3
20260905130154 21 325 9.7 9.7 0.00 0.00 0.13 46 1017.3
20260905125654 21 308 12.9 29.0 0.00 0.00 0.13 47 1017.3
20260905125154 22 314 12.9 16.1 0.00 0.00 0.13 45 1017.3
20260905124654 21 297 14.5 14.5 0.00 0.00 0.13 44 1017.3
20260905124153 21 306 17.7 22.5 0.00 0.00 0.13 45 1017.3
20260905123653 21 309 24.1 27.4 0.00 0.00 0.13 45 1017.3
20260905123153 20 306 12.9 27.4 0.00 0.00 0.13 46 1017.3
20260905122653 21 323 14.5 16.1 0.00 0.00 0.13 45 1017.3
20260905122153 21 294 22.5 33.8 0.00 0.00 0.13 44 1017.3
20260905121653 21 349 20.9 32.2 0.00 0.00 0.13 45 1017.3
20260905121153 21 343 22.5 32.2 0.00 0.00 0.13 44 1017.3
20260905120653 22 306 32.2 38.6 0.00 0.00 0.13 42 1017.3
20260905120153 23 333 16.1 24.1 0.00 0.00 0.13 42 1017.3
20260905115653 21 347 14.5 19.3 0.00 0.00 0.13 43 1017.3
20260905115153 22 272 14.5 16.1 0.00 0.00 0.13 42 1017.3
20260905114653 22 316 24.1 24.1 0.00 0.00 0.13 44 1017.3
20260905114153 22 302 27.4 37.0 0.00 0.00 0.13 45 1017.3
20260905113653 21 339 24.1 27.4 0.00 0.00 0.13 47 1017.3
20260905113154 21 274 8.0 11.3 0.00 0.00 0.13 50 1017.3
20260905112654 21 322 25.7 25.7 0.00 0.00 0.13 48 1017.3
20260905112153 22 325 20.9 27.4 0.00 0.00 0.13 44 1017.3
20260905111653 22 352 22.5 29.0 0.00 0.00 0.13 51 1017.3
20260905111153 21 317 9.7 16.1 0.00 0.00 0.13 52 1017.3
20260905110653 21 334 16.1 16.1 0.00 0.00 0.13 51 1017.3
20260905110154 22 319 16.1 19.3 0.00 0.00 0.13 47 1017.3
20260905105654 22 324 33.8 40.2 0.00 0.00 0.13 45 1017.3
20260905105153 22 308 17.7 20.9 0.00 0.00 0.13 50 1017.3
20260905104653 21 306 17.7 24.1 0.00 0.00 0.13 53 1017.3
20260905104153 20 323 9.7 25.7 0.00 0.00 0.13 57 1017.3
20260905103653 20 298 8.0 16.1 0.00 0.00 0.13 57 1017.3
20260905103154 20 323 20.9 27.4 0.00 0.00 0.13 57 1017.3
20260905102653 21 334 16.1 20.9 0.00 0.00 0.13 56 1017.3
20260905102153 21 297 11.3 16.1 0.00 0.00 0.13 56 1016.9
20260905101653 22 201 6.4 8.0 0.00 0.00 0.13 59 1016.9
20260905101153 21 312 20.9 22.5 0.00 0.00 0.13 56 1016.9
20260905100654 21 278 11.3 12.9 0.00 0.00 0.13 58 1016.9
20260905100153 20 270 16.1 24.1 0.00 0.00 0.13 61 1016.9
20260905095653 20 297 29.0 40.2 0.00 0.00 0.13 61 1017.3
20260905095153 20 320 16.1 16.1 0.00 0.00 0.13 62 1017.3
20260905094653 19 296 9.7 12.9 0.00 0.00 0.13 63 1016.9
20260905094153 19 289 17.7 29.0 0.00 0.00 0.13 65 1016.9
20260905093654 19 291 12.9 16.1 0.00 0.00 0.13 64 1017.3
20260905093153 20 290 17.7 20.9 0.00 0.00 0.13 62 1017.3
20260905092653 21 319 17.7 25.7 0.00 0.00 0.13 64 1017.3
20260905092153 21 310 6.4 9.7 0.00 0.00 0.13 63 1016.9
20260905091653 20 296 9.7 16.1 0.00 0.00 0.13 66 1016.9
20260905091153 20 312 11.3 16.1 0.00 0.00 0.13 67 1016.9
20260905090653 20 315 12.9 14.5 0.00 0.00 0.13 66 1016.9
20260905090153 19 295 14.5 20.9 0.00 0.00 0.13 67 1016.9
20260905085653 19 273 11.3 19.3 0.00 0.00 0.13 67 1017.3
20260905085153 19 275 20.9 22.5 0.00 0.00 0.13 69 1017.3
20260905084653 19 297 27.4 35.4 0.00 0.00 0.13 66 1017.3
20260905084153 19 313 11.3 14.5 0.00 0.00 0.13 67 1017.3
20260905083653 19 301 17.7 20.9 0.00 0.00 0.13 68 1017.3
20260905083153 18 279 11.3 14.5 0.00 0.00 0.13 72 1017.3
20260905082653 18 275 19.3 19.3 0.00 0.00 0.13 73 1017.3
20260905082153 18 247 6.4 8.0 0.00 0.00 0.13 73 1017.3
20260905081653 18 344 8.0 9.7 0.00 0.00 0.13 71 1017.3
20260905081153 19 306 6.4 9.7 0.00 0.00 0.13 71 1017.3
20260905080653 18 279 11.3 20.9 0.00 0.00 0.13 72 1017.3
20260905080153 18 294 17.7 17.7 0.00 0.00 0.13 72 1017.3
20260905075653 18 285 17.7 20.9 0.00 0.00 0.13 75 1017.3
20260905075153 17 298 9.7 11.3 0.00 0.00 0.13 78 1017.3
20260905074653 17 340 19.3 20.9 0.00 0.00 0.13 79 1017.3
20260905074153 16 327 14.5 14.5 0.00 0.00 0.13 81 1017.3
20260905073653 16 335 12.9 16.1 0.00 0.00 0.13 82 1016.9
20260905073153 16 322 3.2 9.7 0.00 0.00 0.13 84 1016.9
20260905072653 16 317 17.7 17.7 0.00 0.00 0.13 84 1016.9
20260905072153 16 331 9.7 16.1 0.00 0.00 0.13 86 1016.9
20260905071653 16 308 9.7 11.3 0.00 0.00 0.13 86 1016.9
20260905071153 16 312 12.9 19.3 0.00 0.00 0.13 87 1016.6
20260905070653 16 319 9.7 12.9 0.00 0.00 0.13 86 1016.6
20260905070153 15 295 9.7 16.1 0.00 0.00 0.13 87 1016.6
20260905065653 15 330 8.0 8.0 0.00 0.00 0.13 88 1016.6
20260905065153 15 312 12.9 20.9 0.00 0.00 0.13 88 1016.6
20260905064653 15 312 4.8 9.7 0.00 0.00 0.13 89 1016.6
20260905064153 15 315 6.4 11.3 0.00 0.00 0.13 88 1016.6
20260905063653 15 274 14.5 16.1 0.00 0.00 0.13 88 1015.9
20260905063153 16 332 9.7 11.3 0.00 0.00 0.13 89 1015.9
20260905062653 15 321 12.9 16.1 0.00 0.00 0.13 88 1015.9
20260905062153 15 353 8.0 9.7 0.00 0.00 0.13 89 1016.3
20260905061653 15 323 11.3 12.9 0.00 0.00 0.13 89 1016.3
20260905061153 15 334 6.4 8.0 0.00 0.00 0.13 90 1015.9
20260905060653 15 332 4.8 4.8 0.00 0.00 0.13 90 1015.9
20260905060154 15 303 9.7 11.3 0.00 0.00 0.13 90 1015.9
20260905055653 15 292 6.4 12.9 0.00 0.00 0.13 91 1015.9
20260905055153 15 281 4.8 4.8 0.00 0.00 0.13 91 1015.9
20260905054653 15 331 11.3 16.1 0.00 0.00 0.13 91 1015.2
20260905054153 15 304 8.0 12.9 0.00 0.00 0.13 92 1015.2
20260905053653 15 291 11.3 16.1 0.00 0.00 0.13 93 1015.2
20260905053153 15 342 4.8 4.8 0.00 0.00 0.13 93 1015.2
20260905052653 15 303 3.2 3.2 0.00 0.00 0.13 94 1015.2
20260905052153 15 314 1.6 3.2 0.00 0.00 0.13 94 1015.2
20260905051653 15 203 6.4 11.3 0.00 0.00 0.13 94 1015.2
20260905051153 15 315 4.8 4.8 0.13 0.00 0.13 94 1015.2
20260905050653 15 301 8.0 9.7 0.13 0.00 0.13 94 1015.2
20260905050153 15 338 6.4 6.4 0.00 0.00 0.13 94 1014.9
20260905045653 15 306 1.6 3.2 0.00 0.00 0.13 94 1014.9
20260905045153 15 310 8.0 12.9 0.13 0.00 0.13 93 1014.9
20260905044653 15 317 4.8 9.7 0.13 0.00 0.13 94 1014.9
20260905044153 15 333 6.4 9.7 0.00 0.00 0.08 94 1014.9
20260905043653 16 307 6.4 9.7 0.00 0.00 0.08 94 1014.6
20260905043153 16 279 4.8 4.8 0.00 0.00 0.08 94 1014.6
20260905042653 16 266 12.9 16.1 0.00 0.00 0.08 94 1014.6
20260905042153 16 281 6.4 9.7 0.00 0.00 0.08 94 1014.6
20260905041653 16 307 6.4 9.7 0.00 0.00 0.08 94 1014.6
20260905041153 16 280 8.0 9.7 0.00 0.00 0.08 94 1014.6
20260905040653 16 328 8.0 9.7 0.00 0.00 0.08 94 1014.6
20260905040153 16 291 9.7 9.7 0.00 0.00 0.08 94 1014.2
20260905035654 16 321 4.8 8.0 0.00 0.00 0.08 94 1014.2
20260905035153 16 283 1.6 4.8 0.00 0.00 0.08 95 1014.2
20260905034653 16 300 4.8 6.4 0.00 0.00 0.08 94 1014.2
20260905034153 16 297 9.7 12.9 0.00 0.00 0.08 94 1014.2
20260905033653 16 317 4.8 8.0 0.00 0.00 0.08 95 1013.9
20260905033153 16 323 6.4 9.7 0.00 0.00 0.08 95 1013.9
20260905032653 16 281 4.8 4.8 0.00 0.00 0.08 95 1013.9
20260905032153 16 308 3.2 4.8 0.00 0.00 0.08 95 1013.9
20260905031653 16 275 4.8 6.4 0.00 0.00 0.08 94 1013.9
20260905031153 16 317 3.2 3.2 0.00 0.00 0.08 95 1013.6
20260905030653 16 246 6.4 6.4 0.00 0.00 0.08 94 1013.6
20260905030153 16 314 3.2 4.8 0.00 0.00 0.08 94 1013.9
20260905025653 16 250 3.2 3.2 0.00 0.00 0.08 94 1013.9
20260905025153 16 280 4.8 4.8 0.00 0.00 0.08 94 1013.9
20260905024653 16 312 4.8 6.4 0.00 0.00 0.08 93 1013.9
20260905024153 16 276 12.9 16.1 0.00 0.00 0.08 93 1013.9
20260905023653 16 318 6.4 9.7 0.00 0.00 0.08 94 1013.9
20260905023153 16 299 8.0 9.7 0.00 0.00 0.08 93 1013.9
20260905022653 16 341 6.4 8.0 0.00 0.00 0.08 93 1013.9
20260905022153 16 241 4.8 8.0 0.00 0.00 0.08 94 1013.9
20260905021653 16 253 9.7 11.3 0.00 0.00 0.08 93 1013.9
20260905021153 16 314 9.7 11.3 0.00 0.00 0.08 93 1013.9
20260905020653 16 283 17.7 20.9 0.00 0.00 0.08 92 1013.9
20260905020153 16 309 6.4 11.3 0.00 0.00 0.08 94 1013.6
20260905015653 16 307 11.3 20.9 0.00 0.00 0.08 93 1013.6
20260905015153 16 319 8.0 14.5 0.00 0.00 0.08 93 1013.6
20260905014653 16 340 11.3 19.3 0.00 0.00 0.08 93 1013.2
20260905014153 16 302 11.3 14.5 0.00 0.00 0.08 94 1013.2
20260905013653 16 254 8.0 11.3 0.00 0.00 0.08 94 1013.9
20260905013153 16 280 8.0 9.7 0.00 0.00 0.08 95 1013.9
20260905012653 16 319 4.8 6.4 0.13 0.00 0.08 95 1013.9
20260905012153 16 326 3.2 3.2 0.13 0.00 0.08 95 1013.9
20260905011653 16 300 4.8 4.8 0.00 0.00 0.05 95 1013.9
20260905011153 16 285 4.8 4.8 0.00 0.00 0.05 94 1013.6
20260905010653 16 271 8.0 11.3 0.00 0.00 0.05 93 1013.6
20260905010153 16 282 11.3 16.1 0.25 0.00 0.05 92 1013.9
20260905005653 16 276 12.9 16.1 0.51 0.00 0.05 91 1013.9
20260905005153 16 310 6.4 9.7 0.38 0.00 0.03 88 1013.9
20260905004653 17 316 9.7 9.7 0.00 0.00 0.00 85 1013.2
20260905004153 17 327 9.7 12.9 0.00 0.00 0.00 83 1013.2
20260905003653 17 310 14.5 17.7 0.00 0.00 0.00 79 1012.5
20260905003153 18 332 9.7 16.1 0.00 0.00 0.00 75 1012.5
20260905002653 18 329 3.2 4.8 0.00 0.00 0.00 73 1012.5
20260905002153 18 297 9.7 9.7 0.00 0.00 0.00 72 1013.6
20260905001653 18 341 22.5 27.4 0.00 0.00 0.00 72 1013.6
20260905001153 18 322 19.3 25.7 0.00 0.00 0.00 70 1013.2
20260905000653 19 324 16.1 24.1 0.00 0.00 0.00 69 1013.2
20260905000153 19 280 14.5 24.1 0.00 0.00 0.00 67 1013.2
20260904235653 19 276 12.9 12.9 0.00 0.00 0.00 67 1013.2
20260904235153 19 321 14.5 16.1 0.00 0.00 0.00 66 1013.2
20260904234653 19 354 20.9 27.4 0.00 0.00 0.00 67 1012.5
20260904234153 19 302 20.9 27.4 0.00 0.00 0.00 66 1012.5
20260904233653 20 355 24.1 27.4 0.00 0.00 0.00 66 1012.5
20260904233153 20 347 33.8 37.0 0.00 0.00 0.00 64 1012.5
20260904232653 20 340 24.1 29.0 0.00 0.00 0.00 64 1012.5
20260904232153 20 358 20.9 25.7 0.00 0.00 0.00 64 1012.2
20260904231653 20 335 11.3 12.9 0.00 0.00 0.00 64 1012.2
20260904231153 20 301 8.0 11.3 0.00 0.00 0.00 65 1012.2
20260904230653 20 310 19.3 20.9 0.00 0.00 0.00 64 1012.2
20260904230153 20 344 16.1 20.9 0.00 0.00 0.00 64 1012.2
20260904225653 20 349 24.1 29.0 0.00 0.00 0.00 64 1012.2
20260904225153 20 264 19.3 27.4 0.00 0.00 0.00 64 1012.2
20260904224653 21 333 30.6 49.9 0.00 0.00 0.00 65 1011.5
20260904224153 21 311 16.1 24.1 0.00 0.00 0.00 67 1011.5
20260904223653 21 313 11.3 12.9 0.00 0.00 0.00 66 1011.5
20260904223153 21 344 4.8 16.1 0.00 0.00 0.00 66 1011.5
20260904222653 21 305 6.4 16.1 0.00 0.00 0.00 67 1011.5
20260904222153 22 310 16.1 16.1 0.00 0.00 0.00 67 1011.5
20260904221653 22 298 8.0 17.7 0.00 0.00 0.00 67 1011.5
20260904221153 22 301 9.7 9.7 0.00 0.00 0.00 67 1011.2
20260904220653 22 302 20.9 25.7 0.00 0.00 0.00 66 1011.2
20260904220153 23 310 14.5 16.1 0.00 0.00 0.00 65 1011.2
20260904215653 23 339 29.0 35.4 0.00 0.00 0.00 64 1011.2
20260904215153 23 320 14.5 16.1 0.00 0.00 0.00 64 1011.2
20260904214653 23 329 25.7 30.6 0.00 0.00 0.00 63 1010.8
20260904214153 23 306 24.1 38.6 0.00 0.00 0.00 61 1010.8
20260904213653 24 330 22.5 27.4 0.00 0.00 0.00 58 1009.5
20260904213153 24 263 17.7 25.7 0.00 0.00 0.00 59 1009.5
20260904212653 23 298 11.3 12.9 0.00 0.00 0.00 59 1009.5
20260904212153 23 272 12.9 17.7 0.00 0.00 0.00 61 1009.5
20260904211653 23 187 9.7 16.1 0.00 0.00 0.00 61 1009.5
20260904211153 23 327 3.2 8.0 0.00 0.00 0.00 61 1009.5
20260904210653 23 359 3.2 9.7 0.00 0.00 0.00 61 1009.5
20260904210153 23 215 6.4 9.7 0.00 0.00 0.00 61 1009.5
20260904205653 23 313 11.3 20.9 0.00 0.00 0.00 61 1009.5
20260904205153 23 302 12.9 16.1 0.00 0.00 0.00 61 1009.5
20260904204653 23 327 8.0 14.5 0.00 0.00 0.00 61 1009.5
20260904204153 23 274 6.4 9.7 0.00 0.00 0.00 61 1009.5
20260904203653 23 246 9.7 16.1 0.00 0.00 0.00 62 1009.5
20260904203153 23 287 6.4 8.0 0.00 0.00 0.00 63 1009.5
20260904202653 23 268 4.8 6.4 0.00 0.00 0.00 63 1009.5
20260904202153 22 279 8.0 9.7 0.00 0.00 0.00 64 1009.5
20260904201653 22 306 4.8 9.7 0.00 0.00 0.00 65 1009.5
20260904201153 22 289 1.6 4.8 0.00 0.00 0.00 68 1009.5
20260904200653 22 328 3.2 11.3 0.00 0.00 0.00 66 1009.5
20260904200153 22 324 0.0 3.2 0.00 0.00 0.00 67 1009.8
20260904195653 22 310 3.2 3.2 0.00 0.00 0.00 68 1009.8